{"data":{"norad_id":59743,"epoch":"2026-05-24T08:37:00.430464Z","epoch_age_seconds":130723,"freshness":"FRESH","line1":"1 59743U 24090P   26144.35903276  .00000629  00000+0  32382-4 0  9993","line2":"2 59743  43.0023 109.1597 0001113 284.0758  75.9970 15.27575513115098","mean_motion":15.27575513,"eccentricity":0.0001113,"inclination_deg":43.0023,"raan_deg":109.1597,"arg_perigee_deg":284.0758,"mean_anomaly_deg":75.997,"bstar":3.2382e-5,"rev_number":11509,"period_min":94.267025606609,"perigee_km":482.29888025685,"apogee_km":483.82618327262,"semimajor_km":6861.1995317647,"source":"CELESTRAK","updated_at":"2026-05-25T13:38:19.053123Z"}}